View from above orbital plane
|
View from above satellite
|
Ground track
|
The orbit data is extracted from the following two-line orbital elements,
1 00029U 60002B 21056.65679554 -.00000064 00000-0 21446-4 0 9992
2 00029 48.3788 193.6309 0024458 236.1582 123.7002 14.74406657255902
Epoch (UTC): | 25 February 2021 15:45:47 |
Eccentricity: | 0.0024458 |
inclination: | 48.3788° |
perigee height: | 630 km |
apogee height: | 664 km |
right ascension of ascending node: | 193.6309° |
argument of perigee: | 236.1582° |
revolutions per day: | 14.74406657 |
mean anomaly at epoch: | 123.7002° |
orbit number at epoch: | 25590 |
The dashed part of the orbit path shows where the satellite is in the earth's shadow,
|
|